Hlavní strana
METAR-TAF:

METAR-TAF

Letiště :

Pickens, Jižní Karolína, Spojené státy americké

zeměpisná šířka: 34-48-36N, zeměpisná délka: 082-42-10W, výška: 309 m

Aktuální stav počasí

Zpráva byla vytvořena před 5 minutami, v 08:35 UTC
Severozápadní vítr 3 kt
Teplota 11°C
Vlhkost vzduchu 100%
Tlak 1018 hPa
Viditelnost: 16.1 km
Jasno

METAR: KLQK 060835Z AUTO 31003KT 10SM CLR 11/11 A3007 RMK AO2 T01130113

Čas: 04:40 (08:40 UTC)


TAF: chybějící

Stav a předpovědi počasí z více než 4 000 letišť (zprávy METAR a TAF).

Červené a žluté tečky na mapě představují dostupné meteorologické stanice.

Když kurzor umístíte na tečku, zobrazí se název stanice.

Pak kliknutím zobrazíte stav a předpověď počasí.

Chcete-li změnit mapu, kliknutím na zelené tlačítko se znaménkem +mapu přiblížíte, kliknutím na zelené tlačítko se znaménkem – mapu oddálíte a kliknutím na zelené šipky přejdete na sousední mapy.


METAR-TAF: